Tracking 22124 objects as of 23-Jan-2021
HD Live streaming from Space Station
objects crossing your sky now

STARLINK-1759

Track STARLINK-1759 now!
10-day predictions
STARLINK-1759 is classified as:


NORAD ID: 46340
Int'l Code: 2020-062R
Perigee: 553.4 km
Apogee: 555.4 km
Inclination: 53.1 °
Period: 95.6 minutes
Semi major axis: 6925 km
RCS: Unknown
Launch date: September 3, 2020
Source: United States (US)
Launch site: AIR FORCE EASTERN TEST RANGE (AFETR)
aabbcc
Your satellite tracking list
Your tracking list is empty




NASA's NSSDC Master Catalog

Two Line Element Set (TLE):
1 46340U 20062R   21023.25001157  .00029447  00000-0  19884-2 0  9994
2 46340  53.0570 137.8132 0001380  85.7100 112.6015 15.06383988 22413
Source of the keplerian elements: AFSPC